Погода в Елани

Погода в Елани : погода сейчас, прогноз погоды и архив. Всё, что Вы хотите узнать о погоде в Елани!

Хотите узнать прогноз погоды в Елани? Тогда Вам сюда: Погода в Елани

Поиск расширенной информации на нашем сайте:

Другие новости

Новости СМИ2

Главная страница сайта

Новости сайта

03.07.2017

Напоминаем, что на нашем специализированном сайте Метеоцентр.Азия вы можете получить высокодетализированные автоматические прогнозы погоды по пунктам России, СНГ и мира в авиационном формате (включающие направление и скорость ветра, видимость, явления погоды, количество и форму облачности, нижнюю и верхнюю границу облачности).


Погода в Елани - сегодня

Время (UTC), дата Ветер
(°,м/с) 
Видим.   Явления Облачность Т
(°С)
Тd
(°С)
f(%) Тe
(°С)
Pmin
(гПа)
dP
(гПа)
Po
(мм)
O2
(г/м3)
Тmin Tmax R s Состояние
почвы
09 13.01.18 020 (С) 20000 м    5/0 верхняя 
[Ci fib]
-9.4 -14.1 69 -11  1041.5  0.6  768  322           
12 13.01.18 020 (С) 20000 м    6/0 верхняя 
[Ci fib]
-8.1 -14.9 58 -11  1041.1  -0.4  767  320           
15 13.01.18 030 (СВ) 20000 м    ясно 
-11.4 -15.3 73 -13  1042.1  0.8  768  324    -7.8       
18 13.01.18 020 (С) 20000 м    ясно 
-13.7 -16.5 79 -16  1042.6  0.4  768  327           
21 13.01.18 тихо ()   20000 м    ясно 
-15.3 -17.5 83 -15  1042.7  0.1  768  329           
00 14.01.18 030 (СВ) 20000 м    ясно 
-16.4 -18.7 82 -17  1042.4  -0.4  768  331           
03 14.01.18 тихо ()   20000 м    ясно 
-17.9 -20.2 82 -18  1041.7  -0.8  767  333  -18.1         
06 14.01.18 260 (З) 20000 м    ясно 
-17 -19.5 81 -17  1042.1  0.4  768  331           
09 14.01.18 330 (СЗ) 20000 м    ясно 
-9.5 -14.8 65 -11  1040.6  -0.9  767  322           
12 14.01.18 320 (СЗ) 20000 м    ясно 
-8.3 -13.7 65 -11  1039.9  -0.6  767  320           
15 14.01.18 330 (СЗ) 20000 м    ясно 
-11.3 -14.2 79 -11  1039.8  -0.4  766  323    -8       
18 14.01.18 340 (С) 20000 м    ясно 
-11.1 -13.9 80 -13  1039.6  -0.2  766  323           
21 14.01.18 330 (СЗ) 20000 м    10/0 средняя 
[Ac As]
-10 -12.8 80 -10  1039.4  -0.2  766  322           
00 15.01.18 340 (С) 20000 м    8/0 средняя 
[Ac trans]
-9.7 -12.4 81 -10  1039  -0.4  766  321           
03 15.01.18 тихо ()   20000 м    10/0 средняя 
[Ac As]
-9.5 -12 82 -10  1038.9  -0.1  766  321  -13.5         
06 15.01.18 тихо ()   20000 м    10/0 средняя, верхняя 
[Ac cast|Ci fib]
-8.9 -11.3 83 -9  1039.5  0.7  766  320           
09 15.01.18 090 (В) 20000 м    5/3 600 м кучево-дожд., верхняя 
[Cb cap|Ci fib]
-6.5 -10.8 71 -8  1039.5  0.1  766  317           
12 15.01.18 140 (ЮВ) 20000 м    3/1 1000 м кучево-дожд., верхняя 
[Cb cap|Ci fib]
-5.8 -11.6 64 -7  1038.8  -0.6  766  316           
15 15.01.18 090 (В) 20000 м    3/0 верхняя 
[Ci fib]
-9.6 -12.6 79 -11  1039.1  766  321    -5.3       
18 15.01.18 090 (В) 20000 м    6/0 верхняя 
[Ci fib]
-12 -14.2 84 -14  1039.2  766  324           
21 15.01.18 120 (ЮВ) 20000 м    4/0 верхняя 
[Ci fib]
-14.3 -16.3 85 -14  1039.3  0.1  766  327           
00 16.01.18 080 (В) 20000 м    ясно 
-14.9 -17.1 83 -17  1038.7  -0.6  765  328           
03 16.01.18 080 (В) 20000 м    ясно 
-15.9 -18 84 -18  1037.4  -1.3  764  329  -16.1         
06 16.01.18 090 (В) 20000 м    3/0 верхняя 
[Ci fib]
-15 -17.4 82 -17  1036.6  -0.7  764  327           
09 16.01.18 100 (В) 20000 м    ясно 
-9.1 -15.6 59 -12  1035.2  -1  763  319           
Время (UTC), дата Ветер
(°,м/с) 
Видим.   Явления Облачность Т
(°С)
Тd
(°С)
f(%) Тe
(°С)
Pmin
(гПа)
dP
(гПа)
Po
(мм)
O2
(г/м3)
Тmin Tmax R s Состояние
почвы

Для получения пояснительной информации подведите курсор к названию столбца.

ПОГОДА в Елани - архив

Всё, что Вы хотите узнать о погоде в Елани - удобно и подробно!

Выберите нужную дату (начиная с 1 января 2015* года) и нажмите кнопку "Найти".
Будут отображены архивные сводки погоды по пункту Елань, начиная с указанной даты.


Отображать данные в формате CSV (для использования в таблицах Excel)


Внимание! Наш архив погоды предназначен исключительно для личного некоммерческого использования в познавательных целях. Если Вам необходимы официальные справки о состоянии погоды (для производственных, юридических, коммерческих и т.п. целей), обращайтесь в органы Росгидромета.

*Примечание: данная дата относится к архиву по метеостанциям СССР (Россия, СНГ, Балтия).
Архив по метеостанциям Зарубежной Европы и Азии (кроме Китая) хранится 10 дней, по другим регионам земного шара (Китай, Африка, Америка, Австралия, Океания) - 1 день.

Елань - район местоположения метеостанции


Название, широта, долгота, высота метеостанции:
Елань 50.9°ш. 43.7°д. 132 м над ур. моря [Российская Федерация]

Дополнительная информация

В oтличие oт бoльшинства пoгoдных сайтoв мы публикуем пoдрoбную метеoинфoрмацию в детальнoм прoфессиoнальнoм фoрмате.

Характеристики температуры и влажнoсти вoздуха измеряются на высoте 2 м в тени вдали oт зданий и деревьев.
Скoрoсть ветра измеряется на высoте 10 м (на урoвне рoста челoвека скoрoсть ветра ниже в 1.5-2 раза). Если метеoстанция нахoдится в гoрoде или в лесу, тo скoрoсть ветра занижена на 2-4 м/с пo сравнению с oткрытым местoм. Скoрoсть ветра над акватoриями крупных рек и oзёр, а также на вершинах хoлмoв на 2-5 м/с выше, чем в oбычных услoвиях.
Атмoсфернoе давление в разных тoчках местнoсти мoжет значительнo oтличаться oт давления на метеoстанции, в зависимoсти oт услoвий рельефа (при пoдъёме на 10 м давление пoнижается примернo на 1 мм рт.ст.).